Location: Unspecified
(0.0000°N, 0.0000°E)
Time: 10:39:11
(UTC+00:00)

KKS-1 - Visible Passes

Search period start: 10 July 2020 00:00
Search period end: 20 July 2020 00:00
Orbit: 636 x 650 km, 98.3° (Epoch: 09 July)

Date Brightness Start Highest point End Pass type
(mag) Time Alt. Az. Time Alt. Az. Time Alt. Az.
10 Jul ? 19:25:35 10° NE 19:28:44 33° ENE 19:28:44 33° ENE visible
11 Jul ? 19:49:38 10° NNE 19:53:27 65° NNE 19:53:27 65° NNE visible
12 Jul ? 20:14:17 10° N 20:18:10 42° WNW 20:18:10 42° WNW visible
13 Jul ? 19:03:37 10° ENE 19:05:13 16° E 19:05:13 16° E visible
13 Jul ? 20:39:39 10° NNW 20:42:51 20° WNW 20:42:51 20° WNW visible
14 Jul ? 19:26:54 10° NE 19:29:55 32° ENE 19:29:55 32° ENE visible
15 Jul ? 19:50:57 10° NNE 19:54:37 60° NNE 19:54:37 60° NNE visible
16 Jul ? 20:15:37 10° N 20:19:19 40° WNW 20:19:19 40° WNW visible
17 Jul ? 19:04:53 10° ENE 19:06:21 15° ENE 19:06:21 15° ENE visible
17 Jul ? 20:41:00 10° NNW 20:44:00 20° WNW 20:44:00 20° WNW visible
18 Jul ? 19:28:11 10° NNE 19:31:02 31° ENE 19:31:02 31° ENE visible
19 Jul ? 19:52:17 10° NNE 19:55:43 54° NNE 19:55:43 54° NNE visible
